This demonstration page uses our WeatherBlox Daily Observations layout. Learn more.

40.92945, -100.16068

Hourly Observations for August 4, 2016

Temp ( °F °C ) Dew Point ( °F °C ) Humidity (%) Winds ( mph kmh ) Pressure ( in mb ) Visibility ( mi km ) Precip ( " mm )
12:15 am 00:15 Clear 77 24.9 71 21.5 81 81 SE 6 9 29.77 1008 10 16.09344 0 0
12:35 am 00:35 Clear 76 24.4 70 21.3 83 83 SE 6 9 29.77 1008 10 16.09344 0 0
12:55 am 00:55 Clear 75 24 70 21 83 83 SSE 8 13 29.77 1008 10 16.09344 0 0
1:15 am 01:15 Clear 74 23.6 69 20.5 83 83 SE 8 13 29.77 1008 10 16.09344 0 0
1:35 am 01:35 Clear 75 23.7 68 20.1 80 80 SE 6 9 29.77 1008 10 16.09344 0 0
1:55 am 01:55 Clear 74 23.5 68 19.8 80 80 SE 6 9 29.74 1007 10 16.09344 0 0
2:15 am 02:15 Clear 74 23.3 67 19.5 79 79 SSE 5 7 29.74 1007 10 16.09344 0 0
2:35 am 02:35 Clear 73 22.9 67 19.2 80 80 SSE 3 6 29.74 1007 10 16.09344 0 0
2:55 am 02:55 Clear 74 23.1 66 19 78 78 Calm 29.74 1007 10 16.09344 0 0
3:15 am 03:15 Clear 70 21 67 19.4 91 91 E 5 7 29.77 1008 10 16.09344 0 0
3:35 am 03:35 Clear 70 21.3 67 19.3 88 88 E 5 7 29.77 1008 10 16.09344 0 0
3:55 am 03:55 Clear 70 20.9 66 19 89 89 ESE 6 9 29.77 1008 10 16.09344 0 0
4:15 am 04:15 Clear 72 22.1 66 18.8 82 82 SE 5 7 29.71 1006 10 16.09344 0 0
4:35 am 04:35 Clear 72 22.2 65 18.5 80 80 SE 5 7 29.71 1006 10 16.09344 0 0
4:55 am 04:55 Clear 72 22.1 65 18.5 80 80 SE 3 6 29.74 1007 10 16.09344 0 0
5:15 am 05:15 Clear 71 21.7 65 18.3 81 81 SE 3 6 29.71 1006 10 16.09344 0 0
5:35 am 05:35 Clear 68 20.2 65 18.3 89 89 Calm 29.74 1007 10 16.09344 0 0
5:55 am 05:55 Clear 68 20 65 18.1 89 89 SE 3 6 29.74 1007 10 16.09344 0 0
6:15 am 06:15 Clear 68 19.8 64 18 89 89 Calm 29.74 1007 10 16.09344 0 0
6:35 am 06:35 Clear 67 19.5 64 17.9 91 91 E 3 6 29.77 1008 10 16.09344 0 0
6:55 am 06:55 Sunny 67 19.5 65 18.1 92 92 ENE 3 6 29.77 1008 7 11.265408 0 0
7:15 am 07:15 Sunny 67 19.5 65 18.2 92 92 Calm 29.77 1008 7 11.265408 0 0
7:35 am 07:35 Sunny 69 20.7 67 19.2 91 91 Calm 29.77 1008 7 11.265408 0 0
7:55 am 07:55 Sunny 71 21.9 68 20 89 89 Calm 29.8 1009 10 16.09344 0 0
8:15 am 08:15 Sunny 75 23.8 67 19.4 76 76 Calm 29.77 1008 10 16.09344 0 0
8:35 am 08:35 Sunny 76 24.3 69 20.3 78 78 NNW 17 28 29.8 1009 10 16.09344 0 0
8:55 am 08:55 Sunny 75 24.1 68 20.2 79 79 N 6 9 29.8 1009 10 16.09344 0 0
9:15 am 09:15 Sunny 77 25.1 69 20.5 76 76 N 7 11 29.8 1009 10 16.09344 0 0
9:35 am 09:35 Sunny 79 26.1 69 20.4 71 71 N 9 15 29.77 1008 10 16.09344 0 0
9:55 am 09:55 Sunny 80 26.5 69 20.5 70 70 N 12 19 29.77 1008 10 16.09344 0 0
10:15 am 10:15 Partly Cloudy 80 26.9 71 21.7 73 73 N 13 20 29.8 1009 10 16.09344 0 0
10:35 am 10:35 Mostly Cloudy 79 25.9 71 21.4 76 76 N 18 30 29.83 1010 10 16.09344 0 0
10:55 am 10:55 Cloudy 75 24 69 20.3 80 80 N 16 26 29.85 1011 10 16.09344 0 0
11:15 am 11:15 Cloudy 75 24 67 19.2 75 75 N 16 26 29.85 1011 10 16.09344 0 0
11:35 am 11:35 Mostly Cloudy 78 25.4 66 18.9 67 67 N 15 24 29.85 1011 10 16.09344 0 0
11:55 am 11:55 Mostly Cloudy 78 25.6 63 17.3 60 60 NNE 21 33 29.85 1011 10 16.09344 0 0
12:15 pm 12:15 Partly Cloudy 79 26.1 62 16.7 56 56 NE 23 37 29.85 1011 10 16.09344 0 0
12:35 pm 12:35 Sunny 81 27 63 17 54 54 NNE 17 28 29.83 1010 10 16.09344 0 0
12:55 pm 12:55 Sunny 81 27.3 58 14.5 46 46 NNE 18 30 29.83 1010 10 16.09344 0 0
1:15 pm 13:15 Sunny 82 27.5 57 13.8 43 43 NNE 17 28 29.83 1010 10 16.09344 0 0
1:35 pm 13:35 Sunny 82 27.6 54 12.4 39 39 NNE 18 30 29.85 1011 10 16.09344 0 0
1:55 pm 13:55 Sunny 82 27.8 55 12.5 39 39 NNE 16 26 29.85 1011 10 16.09344 0 0
2:15 pm 14:15 Sunny 82 27.7 53 11.9 37 37 NNE 15 24 29.85 1011 10 16.09344 0 0
2:35 pm 14:35 Sunny 82 28 55 13 40 40 NNE 13 20 29.85 1011 10 16.09344 0 0
2:55 pm 14:55 Sunny 83 28.1 55 12.6 38 38 NNE 17 28 29.85 1011 10 16.09344 0 0
3:15 pm 15:15 Sunny 82 27.9 54 12.4 38 38 N 16 26 29.85 1011 10 16.09344 0 0
3:35 pm 15:35 Sunny 82 28 53 11.4 36 36 NE 16 26 29.85 1011 10 16.09344 0 0
3:55 pm 15:55 Sunny 82 27.8 56 13.2 41 41 NE 15 24 29.85 1011 10 16.09344 0 0
4:15 pm 16:15 Sunny 82 28 54 12 37 37 NE 12 19 29.85 1011 10 16.09344 0 0
4:35 pm 16:35 Sunny 82 28 53 11.6 36 36 NNE 16 26 29.85 1011 10 16.09344 0 0
4:55 pm 16:55 Sunny 82 27.7 53 11.8 37 37 NE 15 24 29.85 1011 10 16.09344 0 0
5:15 pm 17:15 Sunny 82 27.6 55 12.5 39 39 N 12 19 29.85 1011 10 16.09344 0 0
5:35 pm 17:35 Sunny 82 27.5 54 12.3 39 39 NNE 13 20 29.85 1011 10 16.09344 0 0
5:55 pm 17:55 Sunny 80 26.8 55 12.9 42 42 N 13 20 29.88 1012 10 16.09344 0 0
6:15 pm 18:15 Sunny 79 26.3 55 12.8 43 43 N 16 26 29.88 1012 10 16.09344 0 0
6:35 pm 18:35 Sunny 79 26.1 53 11.9 41 41 NNE 12 19 29.91 1013 10 16.09344 0 0
6:55 pm 18:55 Sunny 78 25.6 55 12.6 44 44 N 10 17 29.91 1013 10 16.09344 0 0
7:15 pm 19:15 Sunny 77 25.2 54 12 44 44 NNE 10 17 29.91 1013 10 16.09344 0 0
7:35 pm 19:35 Sunny 76 24.3 56 13.5 51 51 N 9 15 29.91 1013 10 16.09344 0 0
7:55 pm 19:55 Sunny 74 23.6 56 13.6 54 54 N 9 15 29.94 1014 10 16.09344 0 0
8:15 pm 20:15 Sunny 73 22.7 57 14 58 58 NNE 6 9 29.94 1014 10 16.09344 0 0
8:35 pm 20:35 Sunny 71 21.6 58 14.2 63 63 N 6 9 29.94 1014 10 16.09344 0 0
8:55 pm 20:55 Clear 70 21.1 57 13.7 63 63 N 6 9 29.94 1014 10 16.09344 0 0
9:15 pm 21:15 Partly Cloudy 70 20.9 57 13.8 64 64 NNE 3 6 29.94 1014 10 16.09344 0 0
9:35 pm 21:35 Mostly Cloudy 69 20.4 57 14.1 67 67 N 6 9 29.94 1014 10 16.09344 0 0
9:55 pm 21:55 Mostly Cloudy 68 20.1 57 13.9 68 68 ENE 5 7 29.97 1015 10 16.09344 0 0
10:15 pm 22:15 Partly Cloudy 67 19.5 56 13.6 69 69 Calm 29.97 1015 10 16.09344 0 0
10:35 pm 22:35 Clear 67 19.6 56 13.6 68 68 Calm 29.97 1015 10 16.09344 0 0
10:55 pm 22:55 Clear 67 19.5 56 13.5 68 68 E 3 6 29.97 1015 10 16.09344 0 0
11:15 pm 23:15 Clear 65 18.1 58 14.3 79 79 NNE 7 11 29.97 1015 10 16.09344 0 0
11:35 pm 23:35 Clear 64 18 57 14.1 78 78 N 6 9 29.97 1015 10 16.09344 0 0
11:55 pm 23:55 Clear 64 17.6 57 14.1 80 80 NE 3 6 29.97 1015 10 16.09344 0 0

Powered by AerisWeather